Portada
METAR-TAF:

METAR-TAF

Aeroports :

Salem-Leckrone Airport

Salem, Illinois, Estats Units d'Amèrica

latitud: 38-38-34N, longitud: 088-57-51W, altitud: 175 m

Observació

L'informe es va fer fa 7 minuts, a les 18:35 UTC
Vent 10 kt del Sud-Oest
Temperatura 31°C
Humitat 36%
Pressió 1017 hPa
Visibilitat: 16.1 km
Cel clar

METAR: KSLO 021835Z AUTO 22010KT 10SM CLR 31/14 A3004 RMK AO2 T03090143

Hora: 13:42 (18:42 UTC)


TAF: manca

Observacions i pronòstics meteorològics de més de 4000 aeroports (METAR i TAF).

Les estacions disponibles són els punts grocs i vermells al mapa.

Posi el ratolí al punt desitjat per veure el nom de l'estació.

Feu clic per veure les observacions i els pronòstics meteorològics.

Per canviar el mapa: feu clic els botons verds amb una creu de color negre per apropar; al botó verd amb un guió per allunyar la imatge; o en les fletxes verdes per a mapes adjacents.


METAR-TAF: